Location: Herm
(49.4830°N, 2.4500°W)
Time: 00:12:59
(UTC+01:00)

Tiangong 2 - Visible Passes

Search period start: 21 May 2019 00:00
Search period end: 31 May 2019 00:00
Orbit: 379 x 387 km, 42.8° (Epoch: 20 May)

Date Brightness Start Highest point End Pass type
(mag) Time Alt. Az. Time Alt. Az. Time Alt. Az.
21 May 2.4 22:33:40 10° SW 22:36:04 21° S 22:36:04 21° S visible
22 May 2.7 21:34:06 10° SSW 21:36:19 18° SSE 21:38:32 10° ESE visible
22 May 2.8 23:09:52 10° WSW 23:11:19 19° SW 23:11:19 19° SW visible
23 May 2.4 22:10:01 10° SW 22:12:36 23° S 22:14:11 16° SE visible
24 May 2.4 22:46:24 10° WSW 22:48:55 22° S 22:49:04 22° S visible
25 May 2.4 21:46:27 10° WSW 21:49:03 24° S 21:51:38 10° SE visible
25 May 3.5 23:23:18 10° SW 23:23:51 12° SW 23:23:51 12° SW visible
26 May 2.8 22:23:02 10° WSW 22:25:20 19° SSW 22:26:25 16° SSE visible
27 May 3.5 23:00:40 10° SW 23:01:07 11° SSW 23:01:07 11° SSW visible
28 May 3.2 21:59:49 10° SW 22:01:41 15° SSW 22:03:34 10° SSE visible
